Location: *
(58.7167°N, 26.1833°E)
Time: 09:18:47
(UTC+00:00)

Cosmos 2184 Rocket - Pass Details

Date: 25 August 2019
Orbit: 958 x 1003 km, 82.9° (Epoch: 23 September)

Event Time Altitude Azimuth Distance (km) Brightness Sun altitude
Rises 18:41:29 0° 346° (NNW) 3,664 7.9 -8.2°
Reaches altitude 10° 18:44:07 10° 352° (N) 2,711 7.0 -8.4°
Maximum altitude 18:50:06 49° 67° (ENE) 1,221 4.4 -9.1°
Enters shadow 18:55:48 11° 141° (SE) 2,596 5.6 -9.6°
